Date,TemperatureHighF,TemperatureAvgF,TemperatureLowF,DewpointHighF,DewpointAvgF,DewpointLowF,HumidityHigh,HumidityAvg,HumidityLow,PressureMaxIn,PressureMinIn,WindSpeedMaxMPH,WindSpeedAvgMPH,GustSpeedMaxMPH,PrecipitationSumIn
2013-1-1,48,42,37,37,32,27,72,68,59,0.00,0.00,0,0,0,0.00
2013-1-2,43,39,35,33,30,23,75,70,63,0.00,0.00,0,0,0,0.00
2013-1-3,43,35,27,27,22,19,73,60,52,0.00,0.00,0,0,0,0.00
2013-1-4,50,36,24,30,22,18,77,60,44,0.00,0.00,0,0,0,0.00
2013-1-5,52,38,26,30,23,17,74,57,38,0.00,0.00,0,0,0,0.00
2013-1-6,56,43,34,36,31,27,79,63,44,0.00,0.00,0,0,0,0.00
2013-1-7,52,41,30,34,28,21,73,61,47,0.00,0.00,0,0,0,0.00
2013-1-8,52,36,24,37,27,18,81,69,55,0.00,0.00,0,0,0,0.00
2013-1-9,59,45,29,48,37,23,83,73,66,0.00,0.00,0,0,0,0.00
2013-1-10,61,47,34,42,33,26,77,61,40,0.00,0.00,0,0,0,0.00
2013-1-11,44,41,36,40,34,27,85,77,65,0.00,0.00,0,0,0,0.00
2013-1-12,50,45,42,46,41,38,88,86,85,0.00,0.00,0,0,0,0.00
2013-1-13,46,46,46,43,43,43,87,87,87,0.00,40.00,0,0,0,0.00
2013-1-14,62,53,42,58,50,38,89,88,86,0.00,0.00,0,0,0,0.00
2013-1-15,42,39,38,38,36,35,89,89,87,0.00,0.00,0,0,0,0.00
2013-1-16,44,40,36,41,37,33,89,89,89,0.00,0.00,0,0,0,0.00
2013-1-17,45,40,33,42,37,30,90,89,89,0.00,0.00,0,0,0,0.00
2013-1-18,42,34,30,34,30,26,89,84,71,0.00,0.00,0,0,0,0.00
2013-1-19,51,37,27,39,30,23,86,76,58,0.00,0.00,0,0,0,0.00
2013-1-20,60,44,32,42,31,24,80,62,40,0.00,0.00,0,0,0,0.00
2013-1-21,56,40,29,32,23,11,71,51,35,0.00,0.00,0,0,0,0.00
2013-1-22,34,28,21,12,6,2,48,39,31,0.00,0.00,0,0,0,0.00
2013-1-23,35,25,14,12,7,2,68,48,32,0.00,0.00,0,0,0,0.00
2013-1-24,32,24,17,17,11,5,73,58,39,0.00,0.00,0,0,0,0.00
2013-1-25,25,20,14,17,11,4,75,67,55,0.00,0.00,0,0,0,0.00
2013-1-26,38,29,20,26,20,14,78,71,60,0.00,0.00,0,0,0,0.00
2013-1-27,42,32,26,27,22,19,79,67,54,0.00,0.00,0,0,0,0.00
2013-1-28,49,39,32,41,33,23,86,79,69,0.00,0.00,0,0,0,0.00
2013-1-29,74,54,39,59,46,35,88,75,57,0.00,0.00,0,0,0,0.00
2013-1-30,70,62,51,62,57,45,89,83,76,0.00,0.00,0,0,0,0.00
2013-1-31,63,44,32,60,32,19,89,63,48,0.00,0.00,0,0,0,0.00
2013-2-1,37,31,22,24,15,8,72,52,37,0.00,0.00,0,0,0,0.00
2013-2-2,35,27,20,23,15,7,76,61,46,0.00,0.00,0,0,0,0.00
2013-2-3,41,33,27,32,24,19,82,71,56,0.00,0.00,0,0,0,0.00
2013-2-4,38,31,24,23,20,16,73,62,52,0.00,0.00,0,0,0,0.00
2013-2-5,59,41,31,40,29,21,74,62,47,0.00,0.00,0,0,0,0.00
2013-2-6,60,42,29,37,28,22,80,61,38,0.00,0.00,0,0,0,0.00
2013-2-7,42,37,32,28,26,22,72,64,55,0.00,0.00,0,0,0,0.00
2013-2-8,53,40,34,43,32,25,86,74,59,0.00,0.00,0,0,0,0.00
2013-2-9,55,39,29,26,21,16,66,50,30,0.00,0.00,0,0,0,0.00
2013-2-10,48,34,21,27,20,12,71,57,40,0.00,0.00,0,0,0,0.00
2013-2-11,54,46,37,50,40,28,86,81,65,0.00,0.00,0,0,0,0.00
2013-2-12,62,51,44,38,31,28,66,47,33,0.00,0.00,0,0,0,0.00
2013-2-13,45,40,35,34,31,28,81,69,55,0.00,0.00,0,0,0,0.00
2013-2-14,59,40,28,36,29,23,86,66,38,0.00,0.00,0,0,0,0.00
2013-2-15,67,44,27,41,31,21,80,62,34,0.00,0.00,0,0,0,0.00
2013-2-16,42,37,30,35,30,19,83,76,64,0.00,0.00,0,0,0,0.00
2013-2-17,38,28,23,19,13,8,69,53,36,0.00,0.00,0,0,0,0.00
2013-2-18,52,33,18,25,16,8,67,52,35,0.00,0.00,0,0,0,0.00
2013-2-19,49,37,31,42,30,20,84,74,60,0.00,0.00,0,0,0,0.00
2013-2-20,52,38,30,26,21,15,64,51,33,0.00,0.00,0,0,0,0.00
2013-2-21,52,37,26,26,20,15,65,50,35,0.00,0.00,0,0,0,0.00
2013-2-22,39,35,32,28,23,18,71,61,52,0.00,0.00,0,0,0,0.00
2013-2-23,52,40,35,43,34,27,84,78,71,0.00,0.00,0,0,0,0.00
2013-2-24,65,46,35,43,34,22,86,64,32,0.00,0.00,0,0,0,0.00
2013-2-25,48,36,27,26,21,17,70,56,40,0.00,0.00,0,0,0,0.00
2013-2-26,42,35,28,39,28,18,88,77,63,0.00,0.00,0,0,0,0.00
2013-2-27,59,46,40,47,38,32,88,75,51,0.00,0.00,0,0,0,0.00
2013-2-28,49,41,36,33,30,26,78,65,50,0.00,0.00,0,0,0,0.00
2013-3-1,44,38,31,32,27,24,77,66,56,0.00,0.00,0,0,0,0.00
2013-3-2,40,36,34,27,24,21,68,61,55,0.00,0.00,0,0,0,0.00
2013-3-3,51,37,26,27,21,14,72,54,38,0.00,0.00,0,0,0,0.00
2013-3-4,56,37,25,24,17,12,58,46,27,0.00,0.00,0,0,0,0.00
2013-3-5,49,39,30,33,25,16,80,59,48,0.00,0.00,0,0,0,0.00
2013-3-6,34,33,33,29,28,28,84,83,80,0.00,0.00,0,0,0,0.00
2013-3-7,46,40,33,34,28,25,73,64,57,0.00,0.00,0,0,0,0.00
2013-3-8,47,38,32,32,27,25,76,66,53,0.00,0.00,114,0,114,0.00
2013-3-9,61,41,30,35,28,23,76,62,31,0.00,0.00,0,0,0,0.00
2013-3-10,68,47,29,40,29,21,75,54,30,0.00,0.00,0,0,0,0.00
2013-3-11,61,50,35,49,41,25,77,71,64,0.00,0.00,0,0,0,0.00
2013-3-12,68,57,44,59,48,32,88,73,49,0.00,0.00,0,0,0,0.00
2013-3-13,44,38,33,32,27,18,74,64,47,0.00,0.00,0,0,0,0.00
2013-3-14,53,38,31,25,19,17,57,47,33,0.00,0.00,0,0,0,0.00
2013-3-15,88,49,29,71,30,18,69,49,37,0.00,0.00,0,0,0,0.00
2013-3-16,68,54,41,53,45,30,83,72,57,0.00,0.00,0,0,0,0.44
2013-3-17,46,39,34,39,34,30,85,83,78,0.00,0.00,0,0,0,0.02
2013-3-18,34,34,33,31,30,29,87,86,84,0.00,0.00,0,0,0,0.00
2013-3-19,63,45,33,47,33,19,89,69,28,0.00,0.00,0,0,0,0.00
2013-3-20,59,51,35,27,22,15,45,34,26,0.00,0.00,0,0,0,0.00
2013-3-21,43,35,29,26,19,10,70,53,37,0.00,0.00,0,0,0,0.00
2013-3-22,56,39,26,26,18,10,56,43,29,0.00,0.00,0,0,0,0.00
2013-3-23,60,42,26,30,23,16,68,50,30,0.00,0.00,0,0,0,0.00
2013-3-24,42,36,34,28,25,22,77,63,51,0.00,0.00,0,0,0,0.00
2013-3-25,39,35,32,34,30,27,82,80,77,0.00,0.00,0,0,0,0.00
2013-3-26,48,38,30,36,30,26,84,72,56,0.00,0.00,0,0,0,0.00
2013-3-27,53,42,33,34,28,23,73,58,42,0.00,0.00,0,0,0,0.00
2013-3-28,55,42,29,32,26,21,75,56,41,0.00,0.00,0,0,0,0.00
2013-3-29,59,45,33,37,29,23,72,55,37,0.00,0.00,0,0,0,0.00
2013-3-30,66,49,33,36,30,24,69,50,32,0.00,0.00,0,0,0,0.00
2013-3-31,54,46,42,48,38,30,83,72,57,0.00,0.00,0,0,0,0.00
2013-4-1,65,47,37,47,35,26,86,67,42,0.00,0.00,0,0,0,0.00
2013-4-2,59,42,30,28,22,19,69,47,26,0.00,0.00,0,0,0,0.00
2013-4-3,61,44,28,27,21,16,66,42,25,0.00,0.00,0,0,0,0.00
2013-4-4,52,39,29,31,21,15,77,49,31,0.00,0.00,0,0,0,0.00
2013-4-5,65,49,37,47,37,31,85,66,39,0.00,0.00,0,0,0,0.00
2013-4-6,62,49,37,34,29,24,68,48,29,0.00,0.00,0,0,0,0.00
2013-4-7,74,57,38,47,37,26,63,49,37,0.00,0.00,0,0,0,0.00
2013-4-8,84,66,47,53,46,37,74,50,33,0.00,0.00,0,0,0,0.47
2013-4-9,89,74,59,59,53,48,70,49,33,0.00,0.00,0,0,0,0.00
2013-4-10,95,78,61,62,56,50,72,49,31,0.00,0.00,0,0,0,0.46
2013-4-11,89,76,62,62,57,52,72,52,35,0.00,0.00,0,0,0,0.00
2013-4-12,78,70,63,67,58,44,87,68,42,0.00,0.00,0,0,0,0.46
2013-4-13,75,63,48,46,41,36,71,47,31,0.00,0.00,0,0,0,0.46
2013-4-14,78,64,47,46,40,33,65,44,32,0.00,0.00,0,0,0,0.00
2013-4-15,64,58,54,55,50,42,84,75,47,0.00,0.00,0,0,0,0.00
2013-4-16,73,63,56,61,56,51,85,78,64,0.00,0.00,0,0,0,0.00
2013-4-17,84,70,59,64,59,54,85,70,47,0.00,0.00,0,0,0,0.00
2013-4-18,79,69,62,65,58,56,84,70,52,0.00,0.00,0,0,0,0.00
2013-4-19,78,68,58,66,61,53,86,77,66,0.00,0.00,0,0,0,0.46
2013-4-20,62,54,45,53,39,35,84,59,38,0.00,0.00,0,0,0,0.00
2013-4-21,58,49,39,36,33,30,71,56,43,0.00,0.00,0,0,0,0.00
2013-4-22,60,48,34,39,34,27,78,60,45,0.00,0.00,0,0,0,0.00
2013-4-23,66,55,48,48,42,37,71,62,52,0.00,0.00,0,0,0,0.00
2013-4-24,78,62,44,57,49,37,83,65,45,0.00,0.00,0,0,0,0.00
2013-4-25,67,58,48,55,40,36,74,54,35,0.00,0.00,0,0,0,0.00
2013-4-26,68,53,39,56,38,31,75,60,36,0.00,0.00,0,0,0,0.46
2013-4-27,72,60,47,49,44,39,76,57,39,0.00,0.00,0,0,0,0.00
2013-4-28,59,56,52,51,46,42,77,70,60,0.00,0.00,0,0,0,0.46
2013-4-29,62,57,53,57,52,47,87,85,77,0.00,0.00,0,0,0,0.00
2013-4-30,62,58,55,57,54,51,87,85,79,0.00,0.00,0,0,0,0.46
2013-5-1,69,60,53,53,49,45,87,69,46,0.00,0.00,0,0,0,0.00
2013-5-2,67,60,51,51,47,42,75,64,50,0.00,0.00,0,0,0,0.00
2013-5-3,67,53,46,53,44,40,81,73,50,0.00,0.00,0,0,0,0.00
2013-5-4,63,57,45,50,46,38,78,67,59,0.00,0.00,0,0,0,0.00
2013-5-5,62,53,43,48,43,36,77,68,57,0.00,0.00,0,0,0,0.00
2013-5-6,60,56,52,57,51,46,88,82,67,0.00,0.00,0,0,0,0.00
2013-5-7,66,60,55,63,56,52,89,88,84,0.00,0.00,0,0,0,0.00
2013-5-8,61,57,52,58,54,49,89,88,87,0.00,0.00,0,0,0,0.46
2013-5-9,70,59,49,64,54,45,89,85,76,0.00,0.00,0,0,0,0.46
2013-5-10,79,65,54,67,58,50,89,80,57,0.00,0.00,0,0,0,0.00
2013-5-11,74,66,62,66,61,58,88,83,69,0.00,0.00,0,0,0,0.00
2013-5-12,65,62,57,58,52,38,85,70,39,0.00,0.00,0,0,0,0.00
2013-5-15,85,74,51,66,60,44,78,62,52,0.00,0.00,0,0,0,0.00
2013-5-16,85,71,63,65,60,54,85,70,49,0.00,0.00,0,0,0,0.00
2013-5-17,78,70,61,65,61,56,87,74,52,0.00,0.00,0,0,0,0.00
2013-5-18,68,63,61,61,59,57,89,85,71,0.00,0.00,0,0,0,0.00
2013-5-19,69,64,61,66,61,58,90,89,88,0.00,0.00,0,0,0,0.00
2013-5-20,76,69,64,71,65,61,90,88,82,0.00,0.00,0,0,0,0.00
2013-5-21,79,72,67,73,68,63,90,86,79,0.00,0.00,0,0,0,0.00
2013-5-22,72,69,68,68,66,65,89,88,87,0.00,0.00,0,0,0,0.00
2013-5-23,73,69,64,69,65,60,87,87,86,30.08,0.00,0,0,0,0.00
2013-5-24,64,57,49,60,45,39,89,65,54,0.00,0.00,0,0,0,0.02
2013-5-25,67,55,42,46,40,34,74,59,37,0.00,0.00,0,0,0,0.00
2013-5-26,71,59,44,48,43,37,80,59,37,0.00,0.00,0,0,0,0.00
2013-5-27,67,58,46,54,49,40,81,71,59,0.00,0.00,0,0,0,0.00
2013-5-28,82,68,54,68,60,49,86,77,59,0.00,0.00,0,0,0,0.04
2013-5-29,83,74,64,71,65,60,88,76,59,0.00,0.00,0,0,0,0.00
2013-5-30,86,76,65,71,65,60,84,71,54,0.00,0.00,0,0,0,0.00
2013-5-31,86,76,63,70,64,58,86,70,54,0.00,0.00,0,0,0,0.00
2013-6-1,87,77,66,71,66,60,84,69,57,0.00,0.00,0,0,0,0.00
2013-6-2,79,74,69,71,67,63,86,77,65,0.00,0.00,0,0,0,0.03
2013-6-3,78,71,68,71,66,64,89,85,75,0.00,0.00,0,0,0,0.40
2013-6-4,72,66,60,64,56,50,87,70,46,0.00,0.00,0,0,0,0.00
2013-6-5,77,68,59,64,59,52,82,72,60,0.00,0.00,0,0,0,0.00
2013-6-6,71,66,62,65,59,54,88,79,67,0.00,0.00,0,0,0,0.11
2013-6-7,69,66,65,66,63,61,90,89,88,0.00,0.00,0,0,0,0.19
2013-6-8,73,68,65,67,64,62,90,87,78,0.00,0.00,0,0,0,0.04
2013-6-9,78,69,62,73,66,58,89,88,83,0.00,0.00,0,0,0,0.35
2013-6-10,77,71,67,73,68,64,90,89,86,0.00,0.00,0,0,0,0.87
2013-6-11,78,71,67,71,66,63,90,85,71,0.00,0.00,0,0,0,0.00
2013-6-12,80,74,66,75,69,62,87,86,82,0.00,0.00,0,0,0,0.00
2013-6-13,78,74,70,74,70,66,88,87,81,0.00,0.00,0,0,0,0.19
2013-6-15,77,74,70,63,62,61,73,67,62,0.00,0.00,0,0,0,0.00
2013-6-16,83,81,79,71,70,69,75,69,64,0.00,0.00,0,0,0,0.00
2013-6-17,82,73,69,71,67,65,87,83,70,0.00,0.00,0,0,0,0.02
2013-6-18,72,69,66,69,65,63,89,89,87,0.00,0.00,0,0,0,0.71
2013-6-19,72,67,62,66,63,59,90,87,82,0.00,0.00,0,0,0,0.00
2013-6-20,75,69,66,66,63,62,88,83,70,0.00,0.00,0,0,0,0.00
2013-6-23,80,71,70,73,67,66,87,86,79,0.00,0.00,0,0,0,0.04
2013-7-2,74,72,71,71,69,68,90,90,90,0.00,0.00,0,0,0,0.22
2013-7-3,78,74,71,75,71,68,91,90,89,0.00,0.00,0,0,0,0.35
2013-7-4,81,77,73,76,74,70,91,88,83,0.00,0.00,0,0,0,0.00
2013-7-5,79,74,70,74,70,67,89,88,85,0.00,0.00,0,0,0,0.00
2013-7-6,83,79,76,77,73,71,89,82,72,0.00,0.00,0,0,0,0.00
2013-7-7,86,77,73,76,71,68,88,83,70,0.00,0.00,0,0,0,0.00
2013-7-8,76,72,70,72,68,67,88,88,87,0.00,0.00,0,0,0,0.00
2013-7-9,81,76,70,76,72,67,90,87,83,0.00,0.00,0,0,0,0.00
2013-7-10,84,76,73,78,72,69,89,87,81,0.00,0.00,0,0,0,0.00
2013-7-11,79,74,72,75,71,69,90,89,83,0.00,0.00,0,0,0,0.00
2013-7-12,74,70,66,70,66,63,90,89,88,0.00,40.00,0,0,0,0.00
2013-7-13,79,73,66,74,69,63,90,87,81,0.00,0.00,0,0,0,0.02
2013-7-14,82,77,72,75,72,68,90,85,76,0.00,0.00,0,0,0,0.00
2013-7-15,86,78,70,78,72,67,90,82,68,0.00,0.00,0,0,0,0.00
2013-7-16,88,81,72,79,74,69,88,80,67,0.00,0.00,0,0,0,0.00
2013-7-17,88,82,75,79,75,71,88,81,69,0.00,0.00,0,0,0,0.00
2013-7-18,90,82,75,79,76,71,88,80,68,0.00,0.00,0,0,0,0.00
2013-7-19,90,82,75,80,76,71,88,81,69,0.00,0.00,0,0,0,0.00
2013-7-20,88,80,74,78,73,69,86,81,69,0.00,0.00,0,0,0,0.00
2013-7-21,87,77,71,77,71,67,89,84,69,0.00,0.00,0,0,0,0.00
2013-7-22,81,75,72,74,71,69,89,87,81,0.00,0.00,0,0,0,0.00
2013-7-23,85,79,73,75,72,70,89,80,68,0.00,0.00,0,0,0,0.00
2013-7-24,82,75,70,74,69,66,88,83,71,0.00,0.00,0,0,0,0.06
2013-7-25,75,70,64,66,62,59,87,79,67,0.00,0.00,0,0,0,0.00
2013-7-26,78,71,61,67,63,56,87,77,64,0.00,0.00,0,0,0,0.00
2013-7-27,78,71,66,72,66,62,87,84,79,0.00,0.00,0,0,0,0.00
2013-7-28,74,74,71,70,69,67,88,85,79,0.00,0.00,0,0,0,0.00
2013-7-29,77,72,66,68,64,61,89,76,60,0.00,0.00,0,0,0,0.00
2013-7-30,78,71,62,66,63,57,87,76,62,0.00,0.00,0,0,0,0.97
2013-7-31,77,71,66,70,66,62,86,84,80,0.00,0.00,0,0,0,0.00
2013-8-1,78,71,69,73,67,65,89,88,81,0.00,0.00,0,0,0,0.34
2013-8-2,76,72,70,69,66,64,82,80,78,0.00,0.00,0,0,0,0.00
2013-8-3,78,71,65,71,66,61,88,85,78,0.00,0.00,0,0,0,0.00
2013-8-4,77,70,64,68,63,58,89,78,61,0.00,0.00,0,0,0,0.00
2013-8-5,76,68,59,64,60,54,86,76,62,0.00,0.00,0,0,0,0.00
2013-8-6,74,69,66,69,64,62,88,86,81,0.00,0.00,0,0,0,0.11
2013-8-7,71,71,70,67,67,66,88,88,88,0.00,0.00,0,0,0,0.00
2013-8-9,81,81,81,74,74,74,79,79,79,0.00,40.00,0,0,0,0.00
2013-8-10,77,75,74,72,70,70,88,86,83,0.00,0.00,0,0,0,0.00
2013-8-11,70,70,70,67,67,67,90,90,90,0.00,40.00,0,0,0,0.00
2013-8-12,81,78,70,76,73,66,90,85,77,0.00,0.00,0,0,0,0.51
2013-8-13,81,74,72,74,70,68,89,87,79,0.00,0.00,0,0,0,0.44
2013-8-14,72,67,62,68,60,55,89,79,63,0.00,0.00,0,0,0,0.00
2013-8-15,71,66,55,59,56,50,86,73,61,0.00,0.00,0,0,0,0.00
2013-8-16,73,65,55,64,58,50,87,78,66,0.00,0.00,0,0,0,0.00
2013-8-17,70,64,59,62,58,55,87,83,75,0.00,0.00,0,0,0,0.00
2013-8-28,74,73,71,71,69,53,89,86,48,0.00,0.00,0,0,0,0.00
2013-8-30,70,70,70,66,56,47,88,66,44,0.00,0.00,0,0,0,0.00
2013-8-31,83,75,70,76,70,66,88,84,74,0.00,0.00,0,0,0,0.29
2013-9-1,69,68,68,66,65,64,90,89,89,0.00,40.00,0,0,0,0.00
2013-9-2,79,79,78,75,74,73,87,87,86,0.00,0.00,0,0,0,0.00
2013-9-3,79,78,77,73,72,71,86,81,76,0.00,0.00,0,0,0,0.00
2013-12-7,44,39,32,39,33,27,82,79,77,0.00,0.00,0,0,0,0.00
2013-12-8,32,31,30,29,26,24,87,82,75,0.00,0.00,0,0,0,0.00
2013-12-9,38,35,33,36,32,29,89,88,87,30.13,0.00,0,0,0,0.00
2013-12-10,37,36,35,34,32,32,89,89,89,30.14,29.78,0,0,0,0.00
2013-12-12,28,27,27,16,16,16,63,63,62,30.10,29.98,0,0,0,0.00
2013-12-13,50,36,26,28,21,16,67,55,40,30.16,29.61,0,0,0,0.00
2013-12-14,39,36,33,32,31,24,86,80,70,30.04,29.29,0,0,0,0.00
2013-12-15,50,46,39,42,39,35,88,77,63,29.69,29.24,0,0,0,0.00
2013-12-16,43,37,32,32,29,25,79,73,65,30.22,29.19,0,0,0,0.00
2013-12-17,48,38,29,39,32,23,82,77,70,30.16,29.55,0,0,0,0.00
2013-12-18,34,31,30,30,26,25,84,83,83,30.06,29.07,0,0,0,0.00
2013-12-19,63,47,29,39,32,22,78,57,39,30.26,29.30,0,0,0,0.00
2013-12-20,62,48,36,44,36,28,73,64,50,30.18,29.04,0,0,0,0.00
2013-12-21,70,58,47,60,50,38,83,74,64,30.14,28.90,0,0,0,0.00
2013-12-22,71,65,61,64,60,57,88,83,78,30.08,28.82,0,0,0,0.00
2013-12-23,63,56,40,60,52,34,90,87,76,30.09,29.12,0,0,0,0.00
2013-12-24,44,35,26,34,26,15,85,71,55,31.13,29.39,0,0,0,0.00
2013-12-25,37,27,19,21,16,12,74,63,51,31.07,29.79,0,0,0,0.00
2013-12-26,51,33,22,33,22,14,76,65,47,29.99,29.17,0,0,0,0.00
2013-12-27,54,35,24,32,23,17,79,62,40,30.06,29.57,0,0,0,0.00
2013-12-28,59,39,25,35,26,18,77,61,38,29.66,29.12,0,0,0,0.00
2013-12-29,44,42,41,37,35,32,84,75,61,29.51,29.03,0,0,0,0.00
2013-12-30,44,38,35,36,32,30,86,77,72,29.74,29.68,0,0,0,0.00
2013-12-31,44,33,5,33,25,-3,83,72,58,0.00,0.00,0,0,0,0.00
2014-1-1,52,41,28,34,28,22,79,61,48,0.00,0.00,0,0,0,0.00
2014-1-2,39,33,28,31,26,22,84,77,71,0.00,0.00,0,0,0,0.00